This is the latest recevied weather packets stored in our database for station/object K5NAN. If no packets are shown the sender has not sent any weather packets the latest 10 day(s).
| Time | Temp. | Humidity | Pressure | Rain* | Wind** | Luminosity | Snow |
|---|---|---|---|---|---|---|---|
| 1777823361 | 22.78° C | 50% | 1020.2 hPa | 0 mm | - | 643 W/m² | - |
| 1777823059 | 22.78° C | 51% | 1020.1 hPa | 0 mm | - | 631 W/m² | - |
| 1777822757 | 22.22° C | 50% | 1020 hPa | 0 mm | - | 618 W/m² | - |
| 1777822455 | 22.22° C | 53% | 1020.1 hPa | 0 mm | - | 604 W/m² | - |
| 1777822152 | 22.22° C | 51% | 1020 hPa | 0 mm | - | 593 W/m² | - |
| 1777821849 | 22.22° C | 53% | 1020.1 hPa | 0 mm | - | 577 W/m² | - |
| 1777821546 | 21.67° C | 52% | 1020 hPa | 0 mm | - | 566 W/m² | - |
| 1777821244 | 21.67° C | 52% | 1020 hPa | 0 mm | - | 551 W/m² | - |
| 1777820941 | 21.67° C | 54% | 1020 hPa | 0 mm | - | 537 W/m² | - |
| 1777820637 | 21.67° C | 52% | 1020.2 hPa | 0 mm | - | 522 W/m² | - |
| 1777820333 | 21.67° C | 52% | 1020.1 hPa | 0 mm | - | 506 W/m² | - |
| 1777820031 | 21.67° C | 54% | 1020 hPa | 0 mm | - | 490 W/m² | - |
| 1777819728 | 21.67° C | 53% | 1020 hPa | 0 mm | - | 474 W/m² | - |
| 1777819426 | 21.11° C | 57% | 1019.9 hPa | 0 mm | - | 458 W/m² | - |
| 1777819123 | 20.56° C | 57% | 1020 hPa | 0 mm | - | 442 W/m² | - |
| 1777818820 | 20.56° C | 57% | 1020 hPa | 0 mm | - | 428 W/m² | - |
| 1777818516 | 20° C | 60% | 1020 hPa | 0 mm | - | 410 W/m² | - |
| 1777818214 | 20° C | 60% | 1020 hPa | 0 mm | - | 392 W/m² | - |
| 1777817909 | 19.44° C | 60% | 1020 hPa | 0 mm | - | 377 W/m² | - |
| 1777817607 | 19.44° C | 63% | 1020 hPa | 0 mm | - | 361 W/m² | - |
| 1777817304 | 18.89° C | 65% | 1019.9 hPa | 0 mm | - | 344 W/m² | - |
| 1777817001 | 18.33° C | 67% | 1020 hPa | 0 mm | - | 328 W/m² | - |
| 1777816697 | 17.78° C | 69% | 1020 hPa | 0 mm | - | 311 W/m² | - |
| 1777816394 | 17.78° C | 70% | 1020.1 hPa | 0 mm | - | 294 W/m² | - |
| 1777816092 | 17.22° C | 72% | 1020 hPa | 0 mm | - | 278 W/m² | - |
* Rain latest hour (hover to see other rain measurements)
** Current wind speed in m/s (hover to see current wind gust speed)